Simultaneous Nadir Overpasses (SNOs) Predictions

Prediction of SNOs between GOES-17 and METOP-B Satellite Orbit:

Table of predicted SNOs for the next 14.0 days since TLE Epoch: 11/4/2022
Index Date Time (GOES-17) GOES-17 Lat,Lon METOP-B Lat,Lon Distance(km) Time Diff (sec)
1 11/05/2022 18:39:34 -0.04,-137.33 0.03,-137.69 40.80 80
2 11/08/2022 06:37:55 0.04,-137.31 0.05,-137.28 3.58 80
3 11/10/2022 18:38:47 -0.03,-137.30 -0.11,-136.84 51.82 80
4 11/12/2022 06:57:47 0.03,-137.28 -0.91,-141.43 473.70 80
5 11/13/2022 06:34:28 0.02,-137.26 0.20,-136.44 94.24 80
6 11/14/2022 18:53:19 -0.02,-137.24 0.84,-140.99 427.15 80
7 11/15/2022 18:35:19 -0.01,-137.23 -0.28,-135.99 140.62 80
8 11/17/2022 06:54:20 0.01,-137.20 -0.72,-140.59 385.55 80
9 11/18/2022 06:30:59 0.01,-137.18 0.34,-135.58 181.93 80
